Location: Christian Reformed Church
(43.0975°N, 93.8113°W)
Time: 18:01:59
(UTC+00:00)

Cosmos 1726 Rocket - Pass Details

Date: 13 December 2025
Orbit: 553 x 663 km, 82.5° (Epoch: 15 January)

Event Time Altitude Azimuth Distance (km) Brightness Sun altitude
Rises 23:34:36 0° 180° (S) 2,984 7.4 -9.6°
Reaches altitude 10° 23:36:52 10° 178° (S) 2,074 6.5 -10.0°
Maximum altitude 23:41:28 69° 96° (E) 708 3.6 -10.8°
Drops below altitude 10° 23:46:02 10° 13° (NNE) 2,059 5.9 -11.5°
Sets 23:48:17 0° 11° (NNE) 2,960 6.7 -11.9°
